Weather History for Texarkana, AR

Change the Weather History Date:

Wednesday, November 21, 2012

  Actual Average Record
Temperature  
Mean Temperature 59 °F 52 °F  
Max Temperature 73 °F 62 °F 84 °F (1909)
Min Temperature 45 °F 42 °F 24 °F (1937)
Degree Days  
Heating Degree Days 6 13  
Month to date heating degree days 195 206  
Since 1 July heating degree days 330 324  
Cooling Degree Days 0 0  
Month to date cooling degree days 16 14  
Year to date cooling degree days 2791 2202  
Growing Degree Days 9 (Base 50)    
Moisture  
Dew Point 45 °F    
Average Humidity 66    
Maximum Humidity 100    
Minimum Humidity 31    
Precipitation  
Precipitation 0.00 in 0.16 in 2.54 in (1934)
Month to date precipitation 0.92 3.28  
Year to date precipitation 27.48 43.06  
Snow  
Snow 0.00 in - - ()
Month to date snowfall 0.0  
Since 1 July snowfall 0.0  
Since 1 September snowfall 0.0  
Snow Depth 0.00 in    
Sea Level Pressure  
Sea Level Pressure 30.22 in    
Wind  
Wind Speed 3 mph (ESE)    
Max Wind Speed 8 mph    
Max Gust Speed 13 mph    
Visibility 9 miles    
Events      
T = Trace of Precipitation, MM = Missing Value Source: NWS Daily Summary

Daily Weather History Graph

Daily Weather History Graph

Search for Another Location

Airport:

Trip Planner

Search our weather history database for the weather conditions in past years. The results will help you decide how hot, cold, wet, or windy it might be!

Date:

Astronomy

Nov. 21, 2012 Rise Set
Actual Time 6:53 AM CST 5:10 PM CST
Civil Twilight 6:26 AM CST 5:36 PM CST
Nautical Twilight 5:56 AM CST 6:07 PM CST
Astronomical Twilight 5:26 AM CST 6:37 PM CST
Moon 1:10 PM CST (11/21) 12:31 AM CST (11/21)
Length of Visible Light 11h 10m
Length of Day
10h 16m
First Quarter, 62% of the Moon is Illuminated
Nov 21
First Quarter
Nov 28
Full
Dec 6
Last Quarter
Dec 13
New
Dec 19
First Quarter

Hourly Weather History & Observations

Time (CST) Temp. Windchill Dew Point Humidity Pressure Visibility Wind Dir Wind Speed Gust Speed Precip Events Conditions
12:53 AM 54.0 °F - 51.1 °F 90% 30.19 in 8.0 mi Calm Calm - N/A   Clear
1:53 AM 54.0 °F - 52.0 °F 93% 30.19 in 8.0 mi Calm Calm - N/A   Clear
2:53 AM 50.0 °F - 50.0 °F 100% 30.20 in 8.0 mi Calm Calm - N/A   Clear
3:53 AM 50.0 °F - 48.9 °F 96% 30.21 in 8.0 mi NNE 4.6 mph - N/A   Clear
4:53 AM 46.0 °F 44.8 °F 46.0 °F 100% 30.22 in 5.0 mi NE 3.5 mph - N/A   Clear
5:53 AM 46.9 °F - 46.9 °F 100% 30.23 in 7.0 mi ENE 3.5 mph - N/A   Clear
6:53 AM 48.9 °F - 48.0 °F 97% 30.25 in 7.0 mi Calm Calm - N/A   Clear
7:53 AM 48.9 °F - 48.0 °F 97% 30.27 in 5.0 mi ENE 3.5 mph - N/A   Clear
8:53 AM 57.0 °F - 48.9 °F 74% 30.29 in 9.0 mi Calm Calm - N/A   Clear
9:53 AM 61.0 °F - 48.9 °F 64% 30.31 in 10.0 mi Variable 3.5 mph - N/A   Clear
10:53 AM 63.0 °F - 48.9 °F 60% 30.29 in 10.0 mi Variable 3.5 mph - N/A   Clear
11:53 AM 66.9 °F - 48.0 °F 51% 30.26 in 10.0 mi East 5.8 mph - N/A   Clear
12:53 PM 69.1 °F - 45.0 °F 42% 30.23 in 10.0 mi Variable 3.5 mph - N/A   Clear
1:53 PM 72.0 °F - 43.0 °F 35% 30.21 in 10.0 mi Variable 3.5 mph - N/A   Clear
2:53 PM 72.0 °F - 39.9 °F 31% 30.19 in 10.0 mi Calm Calm - N/A   Clear
3:53 PM 72.0 °F - 39.9 °F 31% 30.18 in 10.0 mi Calm Calm - N/A   Clear
4:53 PM 66.9 °F - 41.0 °F 39% 30.18 in 10.0 mi Calm Calm - N/A   Clear
5:53 PM 62.1 °F - 42.1 °F 48% 30.19 in 10.0 mi SE 3.5 mph - N/A   Clear
6:53 PM 55.9 °F - 43.0 °F 62% 30.19 in 10.0 mi Calm Calm - N/A   Clear
7:53 PM 63.0 °F - 41.0 °F 45% 30.19 in 10.0 mi ESE 5.8 mph - N/A   Clear
8:53 PM 60.1 °F - 39.9 °F 47% 30.20 in 10.0 mi SSE 4.6 mph - N/A   Clear
9:53 PM 59.0 °F - 41.0 °F 51% 30.19 in 10.0 mi SE 5.8 mph - N/A   Clear
10:53 PM 57.0 °F - 42.1 °F 57% 30.19 in 10.0 mi SE 4.6 mph - N/A   Clear
11:53 PM 54.0 °F - 43.0 °F 66% 30.18 in 10.0 mi SSE 5.8 mph - N/A   Clear